"Pseudo-MPEC" for p00044

Created 2025 May 13 20:31:04 UT using Find_Orb

Click here for an explanation of pseudo-MPECs

 
 Astrometry: 
     p00044 * C2025 04 23.53721315 47 47.879+06 57 44.51   ~4NKH 21.59wXNEOCPF51
     p00044   C2025 04 23.55996515 47 47.999+06 57 45.31   ~4NKH 21.63wXNEOCPF51
     p00044   C2025 04 23.57132915 47 48.045+06 57 45.79   ~4NKH 21.74wXNEOCPF51

Station data:
(F51) Pan-STARRS 1, Haleakala  (N20.707234 W156.255910)  US/Hawaii.
   Observers J. Bulger, T. Lowe, A. Schultz, M. Willman. Measurers K.
   Chambers, S. Chastel, T. de Boer, L. Denneau, J. Fairlamb, H. Flewelling,
   M. Huber, C.-C. Lin, E. Magnier, Y. Ramanjooloo, R. Wainscoat, R. Weryk.
   1.8-m Ritchey-Chrétien + CCD.

Orbital elements:  p00044
   Perihelion 2025 Jul 12.51680 +/- 47.9 TT = 12:24:11 (JD 2460869.01680)
Epoch 2025 Apr 24.0 TT = JDT 2460789.5   Earth MOID: 0.0900      AutoNEOCP
M 336.89016720 +/- 22               (J2000 ecliptic)
n   0.29062829 +/- 0.273            Peri.  217.79260 +/- 90
a   2.25723850 +/- 1.41             Node    73.84667 +/- 44
e   0.5342836 +/- 0.252             Incl.   13.87119 +/- 6
P   3.39130                H 21.47  G  0.15   U 11.9  SR
q 1.05123284 +/- 0.445    Q 3.46324416 +/- 88.8
From 3 observations 2025 Apr. 23 (49.1 min); mean residual 0".06
Residuals in arcseconds: 
250423 F51  .04-  .02+    250423 F51  .11+  .05-    250423 F51  .07-  .03+    

Ephemerides (geocentric):
Date (UTC) HH   RA             Dec           delta  r     elong  mag " sig PA
---- --------  ------------   ------------  ------ ------ -----  --- --------
2025 05 13 21  15 44 53.725   +04 39 58.59  .27510 1.2670 156.2 20.1  71d  88
2025 05 13 22  15 44 52.460   +04 39 12.71  .27479 1.2668 156.2 20.1  71d  88
2025 05 13 23  15 44 51.190   +04 38 26.65  .27449 1.2665 156.2 20.1  71d  88
2025 05 14 00  15 44 49.917   +04 37 40.41  .27418 1.2662 156.2 20.1  71d  88
2025 05 14 01  15 44 48.640   +04 36 54.00  .27388 1.2660 156.2 20.1  71d  88
2025 05 14 02  15 44 47.359   +04 36 07.41  .27357 1.2657 156.2 20.1  71d  88
2025 05 14 03  15 44 46.074   +04 35 20.65  .27327 1.2655 156.2 20.1  71d  88
2025 05 14 04  15 44 44.785   +04 34 33.71  .27296 1.2652 156.3 20.1  71d  89
2025 05 14 05  15 44 43.493   +04 33 46.60  .27266 1.2650 156.3 20.1  71d  89
2025 05 14 06  15 44 42.196   +04 32 59.30  .27236 1.2647 156.3 20.1  71d  89
2025 05 14 07  15 44 40.895   +04 32 11.83  .27205 1.2644 156.3 20.1  72d  89
2025 05 14 08  15 44 39.590   +04 31 24.18  .27175 1.2642 156.3 20.1  72d  89
2025 05 14 09  15 44 38.282   +04 30 36.35  .27145 1.2639 156.3 20.1  72d  89
2025 05 14 10  15 44 36.969   +04 29 48.35  .27114 1.2637 156.3 20.1  73d  90
2025 05 14 11  15 44 35.653   +04 29 00.16  .27084 1.2634 156.3 20.1  73d  90
2025 05 14 12  15 44 34.332   +04 28 11.79  .27054 1.2631 156.4 20.1  74d  90
2025 05 14 13  15 44 33.008   +04 27 23.24  .27024 1.2629 156.4 20.1  74d  90
2025 05 14 14  15 44 31.679   +04 26 34.51  .26993 1.2626 156.4 20.1  74d  90
2025 05 14 15  15 44 30.347   +04 25 45.59  .26963 1.2624 156.4 20.1  74d  90
2025 05 14 16  15 44 29.011   +04 24 56.50  .26933 1.2621 156.4 20.1  74d  90
2025 05 14 17  15 44 27.670   +04 24 07.22  .26903 1.2619 156.4 20.1  74d  90
2025 05 14 18  15 44 26.326   +04 23 17.76  .26873 1.2616 156.4 20.1  74d  90
2025 05 14 19  15 44 24.978   +04 22 28.11  .26843 1.2613 156.4 20.1  74d  90
2025 05 14 20  15 44 23.626   +04 21 38.29  .26812 1.2611 156.5 20.1  74d  89
2025 05 14 21  15 44 22.270   +04 20 48.27  .26782 1.2608 156.5 20.1  74d  89
2025 05 14 22  15 44 20.909   +04 19 58.07  .26752 1.2606 156.5 20.1  74d  89
2025 05 14 23  15 44 19.545   +04 19 07.69  .26722 1.2603 156.5 20.1  74d  89
2025 05 15 00  15 44 18.177   +04 18 17.11  .26692 1.2601 156.5 20.1  74d  89
2025 05 15 01  15 44 16.805   +04 17 26.36  .26662 1.2598 156.5 20.1  74d  89
2025 05 15 02  15 44 15.429   +04 16 35.41  .26632 1.2595 156.5 20.1  74d  89
2025 05 15 03  15 44 14.049   +04 15 44.28  .26602 1.2593 156.5 20.1  74d  89
2025 05 15 04  15 44 12.665   +04 14 52.95  .26572 1.2590 156.6 20.0  74d  89
2025 05 15 05  15 44 11.277   +04 14 01.44  .26542 1.2588 156.6 20.0  74d  89
2025 05 15 06  15 44 09.884   +04 13 09.74  .26512 1.2585 156.6 20.0  74d  89
2025 05 15 07  15 44 08.488   +04 12 17.85  .26482 1.2583 156.6 20.0  74d  89
2025 05 15 08  15 44 07.088   +04 11 25.77  .26452 1.2580 156.6 20.0  75d  89
2025 05 15 09  15 44 05.684   +04 10 33.50  .26423 1.2578 156.6 20.0  75d  89
2025 05 15 10  15 44 04.276   +04 09 41.04  .26393 1.2575 156.6 20.0  75d  90
2025 05 15 11  15 44 02.864   +04 08 48.38  .26363 1.2572 156.6 20.0  75d  90
2025 05 15 12  15 44 01.448   +04 07 55.54  .26333 1.2570 156.7 20.0  75d  90
2025 05 15 13  15 44 00.028   +04 07 02.50  .26303 1.2567 156.7 20.0  75d  90
2025 05 15 14  15 43 58.604   +04 06 09.26  .26273 1.2565 156.7 20.0  75d  90
2025 05 15 15  15 43 57.175   +04 05 15.84  .26244 1.2562 156.7 20.0  75d  90
2025 05 15 16  15 43 55.743   +04 04 22.21  .26214 1.2560 156.7 20.0  75d  90
2025 05 15 17  15 43 54.307   +04 03 28.40  .26184 1.2557 156.7 20.0  75d  90
2025 05 15 18  15 43 52.867   +04 02 34.39  .26154 1.2555 156.7 20.0  75d  90
2025 05 15 19  15 43 51.422   +04 01 40.18  .26125 1.2552 156.7 20.0  75d  90
2025 05 15 20  15 43 49.974   +04 00 45.77  .26095 1.2549 156.8 20.0  76d  90